Temp
20 22 22 24 24 24 24 24 24 22 22 22 22 21 21 19 18 18 19 20 20 20 19 19 20 20 19 19 18 18 18 18 18 18 18 18 18 18 18 18 18 18 18 18
21 22 22 23 23 24 24 24 22 21 21 22 21 21 21 20 20 19 19 18 19 19 19 18 20 20 20 19 19 18 18 19 19 18 18 18 18 18 18 18 18 18 18 18
22 23 21 23 23 24 24 25 22 23 21 21 22 20 20 20 19 19 18 19 19 19 20 19 19 20 20 20 19 19 19 18 18 18 18 18 18 18 18 18 18 18 18 18
23 22 22 23 23 24 24 24 24 22 23 23 21 22 19 20 20 19 17 19 19 18 19 19 19 19 21 20 19 19 19 18 18 18 19 18 18 18 18 18 18 18 18 18
22 22 22 22 23 23 24 23 25 24 22 23 22 23 22 19 19 19 19 18 19 19 19 19 19 19 19 20 20 19 18 18 18 18 19 18 18 18 18 18 18 18 18 18
23 21 23 24 23 24 22 23 22 22 22 22 24 24 23 19 21 21 20 20 19 18 19 19 18 18 18 20 20 19 19 18 18 18 19 19 18 18 18 18 18 18 18 18
22 23 23 23 24 23 22 24 21 21 21 23 21 22 25 21 21 22 21 20 19 19 19 19 18 18 19 20 20 19 19 18 19 18 18 19 19 19 19 18 18 18 18 18
21 22 23 23 24 23 23 25 25 23 23 25 20 23 24 20 18 20 20 20 18 18 19 18 19 19 19 20 20 20 19 19 19 19 19 19 19 19 19 19 19 18 19 18
21 22 23 23 24 24 22 22 25 24 22 24 23 22 21 19 20 20 20 19 18 17 18 18 18 18 18 20 20 20 20 19 18 19 18 18 19 19 19 19 19 18 18 18
21 22 23 23 23 22 24 25 24 23 23 23 21 22 24 19 19 21 20 20 19 18 18 18 19 19 20 20 20 20 20 20 19 18 18 18 18 19 19 19 19 19 18 18
20 22 23 22 23 23 23 24 23 25 24 25 24 23 20 20 20 19 20 20 19 18 18 18 19 19 19 19 20 20 20 20 19 19 18 18 18 19 19 19 19 19 19 19
19 22 22 23 21 20 22 22 24 25 22 22 24 24 18 19 19 18 18 17 18 18 17 17 18 19 18 19 19 19 18 19 19 18 18 18 18 18 18 19 19 19 19 19
20 20 22 22 22 21 21 21 21 22 23 23 25 24 17 18 18 16 16 16 16 16 16 17 18 18 18 18 18 18 18 18 19 19 18 18 18 18 18 19 19 19 19 19
18 18 21 22 21 20 20 20 21 23 24 24 24 22 16 17 18 15 15 15 14 15 15 15 16 16 16 17 17 17 17 17 18 18 18 18 18 18 18 19 19 19 19 19
20 20 18 19 19 20 20 20 20 21 22 24 25 23 21 18 17 15 15 14 14 14 15 15 15 16 14 15 15 17 17 17 15 17 18 17 17 18 18 19 19 19 19 19
17 18 18 19 19 19 20 21 21 20 20 21 21 22 19 18 15 15 14 14 14 13 14 14 14 14 15 15 15 15 15 15 14 15 16 17 17 18 18 19 19 19 19 19
18 19 19 19 18 19 20 20 20 19 19 19 21 19 17 16 16 14 14 14 14 13 13 14 14 14 15 14 14 14 15 14 13 14 14 15 16 16 17 17 18 18 18 18
17 17 17 19 18 18 20 19 20 19 18 19 19 18 17 16 15 14 15 14 13 12 12 13 13 14 14 14 14 14 14 14 15 14 14 14 15 15 15 15 15 16 17 18
16 17 16 18 19 18 19 18 18 20 20 19 18 17 16 15 14 14 14 14 14 13 13 12 12 13 13 14 14 14 13 13 13 14 13 14 14 14 14 15 15 16 16 16
16 16 19 15 17 17 18 18 16 17 19 17 17 16 16 15 15 12 12 14 13 13 13 12 12 12 12 12 12 12 12 13 13 12 12 12 13 14 14 14 14 15 15 15
16 16 17 16 17 17 16 15 16 18 19 16 16 16 16 17 18 12 13 12 12 12 12 12 12 11 11 11 11 12 12 12 13 13 13 13 13 14 14 14 14 14 14 15
16 17 16 14 16 16 14 16 18 15 14 14 14 15 15 12 12 12 12 12 13 12 12 11 12 11 11 11 11 12 12 13 13 13 13 13 13 14 14 13 13 14 14 14
14 15 16 16 17 13 12 13 13 12 13 13 13 12 13 11 11 10 11 12 12 12 11 11 11 12 11 11 11 12 12 12 12 12 12 12 12 13 13 13 13 13 13 13
13 10 14 14 14 14 13 13 12 12 11 11 12 13 13 13 13 12 12 11 11 11 11 11 11 11 12 11 11 12 12 11 11 11 11 11 11 11 11 11 12 12 12 12
12 11 13 14 13 13 13 13 13 14 13 12 11 12 13 14 11 12 12 11 11 12 11 11 11 11 11 11 12 12 12 12 12 12 12 11 11 11 11 11 11 11 11 11
11 13 13 15 12 13 13 13 14 14 14 13 13 12 12 13 13 12 11 9 10 9 11 11 11 11 11 11 11 11 11 11 11 11 11 11 10 10 10 10 10 10 10 10
Height
1516 1516 1515 1513 1514 1514 1516 1520 1524 1528 1529 1531 1534 1536 1540 1546 1553 1555 1558 1563 1566 1568 1572 1574 1577 1580 1583 1585 1588 1590 1592 1595 1597 1600 1602 1604 1607 1609 1610 1612 1614 1616 1618 1619
1517 1515 1514 1515 1516 1515 1517 1520 1527 1530 1531 1531 1535 1539 1541 1545 1547 1552 1556 1561 1564 1568 1571 1573 1575 1579 1581 1584 1587 1589 1591 1594 1597 1599 1601 1604 1606 1608 1610 1611 1614 1616 1618 1619
1513 1512 1514 1515 1517 1517 1518 1519 1525 1524 1531 1531 1534 1544 1545 1547 1551 1555 1556 1560 1562 1565 1568 1570 1573 1576 1579 1582 1585 1588 1591 1593 1596 1598 1601 1603 1605 1607 1609 1610 1613 1615 1617 1619
1511 1514 1514 1515 1516 1516 1520 1517 1519 1526 1527 1534 1533 1546 1546 1542 1546 1549 1553 1556 1557 1561 1564 1569 1572 1574 1576 1581 1585 1587 1590 1593 1596 1598 1600 1603 1604 1606 1608 1610 1611 1613 1615 1617
1513 1514 1516 1517 1514 1516 1517 1516 1516 1521 1529 1529 1535 1535 1534 1541 1543 1543 1546 1549 1551 1559 1562 1564 1568 1573 1576 1580 1584 1586 1590 1593 1595 1597 1600 1602 1604 1606 1607 1609 1610 1611 1613 1616
1509 1512 1512 1511 1512 1514 1518 1519 1524 1527 1532 1541 1524 1527 1531 1538 1529 1535 1542 1546 1548 1555 1558 1562 1566 1570 1574 1579 1583 1586 1589 1591 1594 1596 1599 1601 1603 1605 1606 1607 1609 1611 1613 1614
1507 1508 1510 1511 1512 1516 1518 1515 1537 1545 1545 1535 1530 1534 1515 1524 1526 1527 1532 1539 1546 1550 1555 1559 1562 1567 1572 1576 1580 1584 1588 1590 1594 1596 1598 1601 1602 1603 1604 1607 1609 1610 1612 1613
1513 1519 1507 1506 1507 1512 1516 1511 1513 1536 1536 1523 1532 1530 1514 1523 1524 1524 1527 1534 1544 1548 1552 1556 1559 1564 1569 1573 1578 1582 1586 1589 1592 1596 1598 1600 1602 1603 1604 1606 1608 1610 1612 1613
1513 1510 1501 1504 1504 1505 1515 1520 1506 1515 1523 1519 1522 1520 1517 1522 1520 1521 1525 1532 1540 1545 1549 1553 1557 1561 1566 1570 1575 1579 1583 1587 1590 1593 1596 1599 1601 1603 1604 1606 1607 1609 1611 1612
1504 1510 1500 1500 1503 1506 1503 1501 1514 1512 1530 1529 1529 1524 1510 1521 1519 1519 1523 1527 1536 1544 1547 1551 1554 1558 1562 1567 1572 1575 1580 1584 1587 1591 1594 1596 1599 1601 1603 1604 1605 1607 1608 1610
1505 1504 1503 1500 1502 1503 1505 1504 1507 1502 1508 1511 1523 1517 1512 1513 1517 1520 1522 1527 1533 1539 1544 1549 1553 1557 1560 1563 1568 1571 1576 1580 1584 1588 1592 1594 1596 1598 1600 1602 1603 1605 1606 1608
1506 1501 1505 1503 1503 1506 1503 1505 1501 1502 1519 1513 1508 1509 1514 1515 1518 1521 1524 1528 1532 1538 1544 1547 1550 1554 1558 1560 1564 1567 1572 1577 1581 1585 1588 1590 1594 1597 1597 1600 1601 1603 1606 1607
1505 1508 1509 1506 1506 1505 1506 1508 1507 1505 1502 1507 1508 1507 1515 1515 1519 1523 1526 1528 1532 1535 1540 1544 1547 1551 1554 1557 1560 1562 1567 1573 1577 1579 1584 1588 1591 1593 1594 1597 1599 1601 1604 1606
1505 1510 1507 1509 1507 1510 1511 1509 1507 1502 1500 1499 1500 1507 1516 1515 1517 1523 1525 1528 1531 1533 1535 1542 1545 1546 1550 1553 1556 1559 1560 1568 1573 1576 1580 1583 1587 1590 1592 1594 1596 1599 1601 1603
1505 1508 1512 1511 1510 1510 1511 1510 1506 1505 1500 1497 1493 1499 1499 1509 1515 1521 1525 1529 1532 1536 1537 1539 1543 1546 1549 1550 1553 1555 1559 1562 1569 1572 1575 1580 1583 1586 1589 1591 1593 1595 1598 1599
1509 1514 1513 1514 1513 1513 1511 1505 1503 1505 1505 1501 1501 1500 1505 1510 1518 1523 1526 1530 1533 1536 1539 1540 1544 1546 1548 1550 1552 1551 1554 1561 1568 1569 1574 1577 1580 1583 1585 1586 1588 1591 1593 1596
1508 1510 1512 1515 1516 1512 1515 1509 1506 1507 1507 1506 1503 1506 1510 1514 1515 1520 1525 1530 1533 1537 1538 1540 1541 1544 1547 1550 1553 1552 1553 1557 1561 1566 1570 1574 1575 1582 1582 1583 1584 1586 1589 1593
1511 1513 1514 1514 1514 1525 1509 1510 1506 1507 1509 1507 1506 1506 1509 1515 1520 1522 1526 1529 1533 1536 1537 1537 1539 1542 1544 1548 1552 1555 1553 1558 1559 1565 1568 1572 1575 1580 1579 1581 1582 1584 1586 1588
1510 1510 1519 1516 1516 1516 1509 1512 1512 1509 1508 1507 1507 1508 1512 1516 1520 1526 1530 1530 1532 1534 1536 1539 1541 1542 1544 1547 1550 1552 1556 1558 1561 1566 1570 1572 1575 1577 1577 1578 1582 1583 1584 1586
1512 1510 1509 1524 1520 1522 1513 1513 1514 1513 1510 1506 1509 1510 1512 1515 1521 1528 1529 1531 1534 1536 1538 1541 1545 1546 1547 1549 1553 1554 1557 1560 1564 1568 1570 1572 1574 1575 1577 1580 1581 1582 1582 1584
1514 1516 1515 1519 1520 1516 1514 1515 1514 1515 1512 1508 1510 1509 1513 1514 1513 1523 1529 1533 1536 1539 1543 1546 1549 1550 1552 1554 1556 1558 1560 1562 1566 1567 1570 1573 1574 1575 1577 1579 1581 1582 1582 1582
1513 1514 1518 1525 1523 1524 1516 1513 1514 1515 1513 1511 1511 1514 1517 1518 1518 1522 1529 1534 1538 1541 1546 1550 1550 1554 1557 1560 1562 1562 1564 1565 1567 1571 1572 1574 1575 1576 1578 1580 1581 1581 1582 1582
1519 1515 1513 1516 1515 1518 1517 1516 1514 1512 1512 1511 1511 1513 1515 1519 1525 1530 1533 1537 1540 1544 1549 1553 1556 1556 1560 1562 1564 1564 1566 1567 1569 1571 1572 1575 1576 1576 1577 1577 1580 1582 1582 1583
1519 1521 1517 1518 1518 1517 1517 1517 1516 1512 1511 1510 1510 1513 1515 1519 1523 1531 1536 1540 1543 1547 1552 1555 1558 1560 1561 1562 1564 1566 1567 1567 1569 1571 1572 1573 1574 1575 1576 1577 1578 1579 1580 1580
1518 1520 1518 1517 1517 1518 1517 1516 1515 1514 1512 1512 1513 1515 1518 1520 1526 1528 1534 1543 1547 1551 1555 1558 1560 1561 1563 1564 1565 1566 1567 1568 1569 1570 1571 1573 1573 1574 1574 1575 1576 1576 1576 1577
1515 1513 1514 1512 1515 1516 1517 1517 1517 1516 1516 1516 1517 1518 1522 1525 1526 1532 1533 1542 1550 1554 1557 1558 1560 1562 1563 1563 1565 1566 1568 1569 1569 1569 1571 1571 1571 1573 1573 1573 1573 1574 1575 1575
Wind_Speed
5 6 12 10 4 5 7 6 5 4 9 9 5 9 16 24 26 21 26 18 19 20 17 18 20 18 15 16 17 18 18 18 15 16 17 17 17 14 11 12 13 10 10 8
6 11 6 4 6 6 4 5 4 6 5 2 8 12 14 21 25 25 24 21 18 14 15 18 22 21 19 16 17 18 17 18 15 16 17 17 15 14 12 11 13 10 12 9
12 4 7 8 6 7 4 4 6 3 6 3 12 9 12 14 13 16 23 25 15 14 18 19 22 23 21 20 18 20 18 16 14 13 16 17 17 15 13 13 14 12 12 11
8 6 10 7 6 5 8 7 7 10 7 3 2 4 8 14 15 21 22 25 24 11 17 20 21 25 25 20 17 19 19 17 15 12 12 13 16 16 13 12 12 11 13 13
5 10 9 7 6 6 1 3 10 7 3 3 6 3 5 13 15 20 28 28 25 22 15 19 24 22 22 22 19 19 20 18 19 14 12 12 11 10 10 11 12 10 12 13
5 1 3 3 3 10 9 10 9 6 2 4 6 7 6 11 20 20 29 30 28 21 17 13 15 18 21 24 21 20 21 17 20 16 14 12 11 11 9 9 13 12 11 11
7 7 3 3 6 7 4 11 4 3 4 3 2 6 4 11 8 20 27 35 31 26 16 13 17 18 21 25 24 23 21 19 19 17 14 12 11 10 9 8 9 10 11 12
8 7 8 7 10 7 15 12 7 13 6 6 5 6 2 4 7 11 26 33 32 27 18 11 17 19 20 22 24 23 23 21 19 17 17 14 9 9 9 9 8 7 11 10
5 4 3 6 4 10 7 9 4 3 1 5 3 3 5 3 5 11 21 27 31 26 16 12 15 17 18 21 22 23 23 22 22 19 16 16 13 10 10 10 9 10 9 10
6 3 2 3 4 2 7 6 7 3 8 7 4 4 4 6 7 11 18 28 31 27 22 15 13 16 21 22 21 22 21 22 22 20 18 15 14 12 12 14 12 12 11 11
3 2 4 3 2 3 4 5 2 3 3 9 4 4 2 7 10 11 17 22 27 28 32 20 14 14 14 20 23 22 20 22 19 23 19 16 16 12 10 9 11 14 12 11
2 1 1 3 3 2 1 1 4 7 7 1 4 4 3 5 10 12 12 14 19 22 20 23 23 18 14 20 17 23 19 18 18 20 21 19 17 14 11 11 5 15 12 11
4 1 2 4 4 3 3 3 1 1 1 8 9 3 1 11 13 11 12 13 14 15 13 21 23 24 23 24 24 20 20 17 18 22 22 20 19 17 14 12 10 9 12 12
2 2 3 6 2 1 0 4 2 5 6 6 7 6 9 13 14 15 15 14 10 10 12 9 11 11 15 15 25 26 30 16 16 24 26 22 21 19 16 16 15 14 14 13
1 1 1 5 5 4 5 6 3 6 2 8 7 11 15 18 16 19 15 14 12 10 10 10 11 10 9 11 18 22 22 19 21 25 23 21 17 17 17 16 16 17 16 16
1 3 1 4 2 3 2 6 4 5 3 6 3 7 4 18 19 18 17 16 12 10 12 13 12 12 12 14 20 18 16 19 19 16 18 16 10 6 9 14 18 16 18 18
0 4 3 3 4 4 6 6 9 6 4 5 3 3 10 15 20 20 18 16 14 12 12 14 14 15 16 15 16 16 12 7 7 12 17 16 13 8 6 7 13 17 17 17
4 4 1 1 1 8 4 1 4 5 3 3 5 1 11 15 15 17 18 19 16 13 12 12 14 18 22 20 19 19 17 12 8 7 9 12 16 14 10 7 8 12 12 12
2 4 3 3 4 4 4 2 4 3 6 4 3 9 17 21 19 14 14 14 17 17 16 13 13 18 21 24 24 25 30 22 19 18 15 12 10 10 9 7 8 9 8 7
5 5 3 2 3 5 3 3 9 1 5 1 5 13 21 24 8 4 18 20 21 21 21 19 18 20 21 21 22 25 24 21 16 14 14 12 10 6 7 8 7 7 7 7
1 3 2 3 3 3 0 10 4 5 2 4 7 15 21 12 4 23 24 25 25 24 22 20 20 19 19 17 15 16 16 15 13 11 9 8 9 8 7 7 7 6 6 5
3 4 3 2 2 5 7 2 3 4 5 6 6 8 13 9 22 26 27 27 25 24 22 20 20 17 16 12 11 14 13 14 13 11 11 9 8 8 8 7 6 6 6 6
2 1 1 3 1 2 4 2 6 7 7 2 10 13 16 19 20 20 25 27 25 24 23 20 18 17 15 12 8 7 9 9 9 8 8 8 7 7 7 7 7 7 7 7
2 1 1 3 3 3 3 2 5 7 4 5 10 15 19 20 24 23 25 24 25 23 21 18 15 14 12 9 7 5 6 6 6 6 6 5 5 5 5 5 6 6 6 6
1 4 3 2 3 3 3 3 7 9 9 7 10 13 18 19 22 30 28 20 19 18 18 16 14 12 9 8 6 5 5 5 4 4 4 4 4 3 3 2 2 2 2 3
7 4 4 2 2 0 2 1 3 6 8 7 7 12 16 18 25 29 27 12 2 12 17 17 14 10 10 8 6 6 7 7 5 5 5 4 3 2 2 1 0 1 1 1
Wind_Direction
159 200 200 181 181 124 122 118 131 122 158 159 164 143 159 167 178 193 193 193 207 209 204 202 207 200 199 202 198 195 190 192 190 193 188 184 188 190 188 189 189 198 183 171
159 213 198 164 150 146 134 127 99 106 139 144 159 157 162 171 186 185 188 201 206 209 205 206 210 208 202 205 200 199 190 190 196 200 197 194 197 199 198 193 197 196 186 184
183 182 158 185 170 175 181 175 159 113 150 160 157 141 168 189 182 168 185 217 196 216 211 210 207 211 204 207 201 196 195 188 185 190 201 208 211 204 203 203 202 208 200 203
182 133 163 176 197 202 208 203 155 145 178 158 231 160 205 183 192 183 179 197 208 208 209 214 213 208 208 209 203 198 195 193 195 188 189 204 207 207 214 213 208 205 211 211
146 168 176 194 213 194 230 181 181 162 124 194 182 223 137 191 205 205 190 196 200 207 209 203 213 212 209 209 208 206 200 203 202 198 197 199 202 201 209 206 208 206 201 208
132 109 210 197 183 197 141 120 94 91 129 238 182 223 175 185 215 206 206 200 196 203 209 220 209 209 208 210 215 212 204 202 202 204 199 206 204 210 214 215 207 205 207 204
193 235 244 199 197 156 204 181 156 163 190 231 171 191 278 189 214 211 202 201 199 192 195 215 201 205 215 213 214 214 208 205 203 211 209 209 223 226 223 214 210 221 210 194
190 201 203 175 217 190 204 228 226 207 195 198 137 219 188 239 248 231 205 196 192 193 200 206 203 205 215 217 213 216 214 211 208 213 213 215 217 215 201 212 229 224 209 198
176 211 163 222 183 190 181 220 280 127 76 214 167 225 217 196 211 194 192 186 190 184 176 187 193 198 208 224 222 220 223 220 217 217 221 223 227 227 225 215 217 220 208 207
182 200 165 141 158 142 220 158 198 239 179 216 191 259 236 202 191 185 189 191 191 191 181 182 191 200 217 224 228 227 228 224 225 222 225 223 224 230 233 224 224 210 212 210
157 252 135 209 64 177 167 199 194 221 272 225 197 227 144 189 186 188 190 193 192 195 198 202 199 202 207 221 229 234 227 224 225 225 227 228 221 227 225 217 232 213 210 207
135 187 203 73 17 270 285 85 219 225 186 242 282 212 160 189 175 177 182 186 196 198 198 205 211 231 219 223 223 227 220 214 222 223 229 229 223 223 223 227 234 211 217 212
171 296 217 166 160 150 58 16 45 177 162 203 224 210 113 179 165 166 172 181 190 183 188 214 225 234 244 244 232 226 214 217 217 217 222 227 221 227 225 223 230 205 198 210
122 105 278 273 97 94 32 6 328 244 217 193 227 173 187 185 179 171 175 171 161 173 191 195 207 221 243 248 228 227 227 237 224 215 216 215 219 223 229 227 226 231 227 226
4 102 131 99 104 112 80 29 29 228 272 230 192 203 194 187 179 173 161 159 155 170 183 205 218 220 242 217 214 222 226 235 200 194 200 199 203 219 227 227 227 228 232 232
4 132 132 159 318 270 32 41 47 38 307 248 277 220 296 167 160 157 155 154 157 165 181 182 194 194 200 175 171 156 164 181 195 202 202 191 180 209 218 223 221 221 220 230
130 154 157 205 352 295 216 37 45 337 308 305 226 34 152 170 167 158 157 160 154 157 173 179 184 184 184 200 199 182 174 119 167 216 212 198 199 284 261 247 216 207 212 221
149 119 56 112 288 239 71 8 66 54 314 269 296 280 174 163 157 152 160 155 153 155 151 164 180 184 187 192 197 187 163 148 167 209 210 219 219 257 206 194 197 193 188 191
317 130 100 208 206 315 159 69 337 10 319 327 303 146 154 143 130 136 154 158 153 146 147 153 167 172 170 170 181 183 161 173 185 200 197 186 189 186 175 187 202 200 184 188
66 64 228 147 211 239 83 344 340 276 285 22 189 167 164 153 153 144 158 159 148 142 136 135 136 137 140 140 148 156 156 158 155 153 156 148 155 162 167 174 170 171 170 186
104 51 168 151 236 281 268 314 295 231 30 307 213 173 171 184 174 156 161 151 148 145 141 140 134 127 120 122 128 129 130 136 140 145 140 146 146 144 148 148 151 148 156 164
215 166 152 138 211 248 5 308 284 2 310 289 220 178 171 123 139 145 157 154 154 152 148 147 141 132 127 128 142 138 144 144 148 157 159 166 165 165 165 159 161 152 148 145
225 299 168 228 93 342 320 300 328 328 295 234 185 170 160 133 140 145 152 157 156 152 154 155 154 148 144 141 142 149 152 142 154 162 170 180 177 174 177 176 184 184 180 182
185 208 220 204 165 270 314 351 22 10 320 195 187 179 169 151 158 158 161 157 160 161 163 161 157 149 142 135 129 138 135 131 141 159 169 176 178 180 183 186 190 196 196 194
182 172 168 246 243 280 288 14 22 41 63 112 143 162 167 166 165 167 163 162 163 169 170 168 165 156 149 140 136 139 141 149 161 172 180 184 180 180 185 200 202 215 229 237
190 170 187 200 140 131 128 251 65 58 64 94 137 156 171 179 174 170 154 134 43 220 195 181 172 165 151 133 130 136 144 149 159 169 176 173 173 181 176 170 168 37 40 329